When you browse on this site, cookies collect data to enhance your experience and personalize the content and advertising you see.
Visit our Privacy Policy to learn more. By continuing to use the site, you agree to this use of cookies and data.
  • In Hungary
  • List of Countries
  • For 7 days
  • Water Temperature
  • Satellite Maps
  • Weather Map
  • News
  • Weather Widgets
  • user-avatar
    Login

    Hourly Weather Ciudad Real

    Today, 19 June, Wednesday

    Time Temperature Precipitation Wind Pressure Humidity
    00:00 +17°C° 0 mm 2 mps 707 mmHg 62%
    01:00 +17°C° 0 mm 2 mps 706 mmHg 67%
    02:00 +16°C° 0 mm 2 mps 706 mmHg 72%
    03:00 +15°C° 0 mm 1 mps 706 mmHg 77%
    04:00 +15°C° 0 mm 1 mps 706 mmHg 77%
    05:00 +16°C° 0 mm 2 mps 707 mmHg 76%
    06:00 +16°C° 0 mm 2 mps 707 mmHg 76%
    07:00 +18°C° 0 mm 2 mps 707 mmHg 68%
    08:00 +20°C° 0 mm 2 mps 707 mmHg 60%
    09:00 +22°C° 0 mm 3 mps 708 mmHg 52%
    10:00 +25°C° 0 mm 3 mps 708 mmHg 44%
    11:00 +27°C° 0 mm 4 mps 707 mmHg 36%
    12:00 +29°C° 0 mm 4 mps 707 mmHg 29%
    13:00 +29°C° 0 mm 5 mps 707 mmHg 27%
    14:00 +30°C° 0 mm 5 mps 706 mmHg 25%
    15:00 +32°C° 0 mm 5 mps 706 mmHg 22%
    16:00 +32°C° 0 mm 5 mps 706 mmHg 23%
    17:00 +30°C° 0 mm 5 mps 706 mmHg 24%
    18:00 +30°C° 0 mm 5 mps 706 mmHg 25%
    19:00 +27°C° 0 mm 4 mps 706 mmHg 34%
    20:00 +25°C° 0 mm 4 mps 706 mmHg 42%
    21:00 +21°C° 0 mm 3 mps 706 mmHg 51%
    22:00 +20°C° 0 mm 2 mps 706 mmHg 56%
    23:00 +19°C° 0 mm 2 mps 706 mmHg 61%

    Tomorrow, 20 June, Thursday

    Time Temperature Precipitation Wind Pressure Humidity
    00:00 +17°C° 0 mm 2 mps 706 mmHg 66%
    01:00 +18°C° 0 mm 1 mps 706 mmHg 70%
    02:00 +16°C° 0 mm 1 mps 706 mmHg 74%
    03:00 +15°C° 0 mm 1 mps 706 mmHg 78%
    04:00 +16°C° 0 mm 1 mps 706 mmHg 76%
    05:00 +16°C° 0 mm 1 mps 706 mmHg 74%
    06:00 +18°C° 0 mm 1 mps 706 mmHg 72%
    07:00 +19°C° 0 mm 2 mps 706 mmHg 64%
    08:00 +21°C° 0 mm 2 mps 706 mmHg 57%
    09:00 +24°C° 0 mm 2 mps 707 mmHg 49%
    10:00 +25°C° 0 mm 3 mps 706 mmHg 43%
    11:00 +27°C° 0 mm 3 mps 706 mmHg 37%
    12:00 +28°C° 0 mm 3 mps 706 mmHg 31%
    13:00 +29°C° 0 mm 4 mps 706 mmHg 28%
    14:00 +30°C° 0 mm 4 mps 705 mmHg 26%
    15:00 +32°C° 0 mm 5 mps 705 mmHg 23%
    16:00 +32°C° 0 mm 5 mps 705 mmHg 24%
    17:00 +30°C° 0 mm 4 mps 705 mmHg 24%
    18:00 +30°C° 0 mm 4 mps 705 mmHg 25%
    19:00 +28°C° 0 mm 3 mps 705 mmHg 28%
    20:00 +26°C° 0 mm 3 mps 705 mmHg 31%
    21:00 +23°C° 0 mm 2 mps 705 mmHg 35%
    22:00 +21°C° 0 mm 2 mps 705 mmHg 36%
    23:00 +21°C° 0 mm 2 mps 705 mmHg 37%

    Day after tomorrow, 21 June, Friday

    Time Temperature Precipitation Wind Pressure Humidity
    00:00 +20°C° 0 mm 2 mps 706 mmHg 38%
    01:00 +19°C° 0 mm 2 mps 705 mmHg 43%
    02:00 +17°C° 0 mm 2 mps 705 mmHg 47%
    03:00 +16°C° 0 mm 2 mps 705 mmHg 52%
    04:00 +16°C° 0 mm 2 mps 705 mmHg 53%
    05:00 +17°C° 0 mm 2 mps 706 mmHg 55%
    06:00 +18°C° 0 mm 1 mps 706 mmHg 56%
    07:00 +19°C° 0 mm 2 mps 706 mmHg 50%
    08:00 +23°C° 0 mm 2 mps 706 mmHg 43%
    09:00 +25°C° 0 mm 2 mps 707 mmHg 36%
    10:00 +27°C° 0 mm 3 mps 707 mmHg 30%
    11:00 +28°C° 0 mm 3 mps 707 mmHg 24%
    12:00 +30°C° 0 mm 4 mps 706 mmHg 18%
    13:00 +30°C° 0 mm 4 mps 706 mmHg 17%
    14:00 +32°C° 0 mm 4 mps 706 mmHg 16%
    15:00 +33°C° 0 mm 4 mps 705 mmHg 15%
    16:00 +32°C° 0 mm 4 mps 705 mmHg 16%
    17:00 +32°C° 0 mm 4 mps 705 mmHg 16%
    18:00 +32°C° 0 mm 4 mps 705 mmHg 16%
    19:00 +28°C° 0 mm 3 mps 705 mmHg 20%
    20:00 +26°C° 0 mm 3 mps 705 mmHg 24%
    21:00 +23°C° 0 mm 2 mps 706 mmHg 28%
    22:00 +21°C° 0 mm 2 mps 706 mmHg 30%
    23:00 +21°C° 0 mm 1 mps 706 mmHg 32%

    22 June, Saturday

    Time Temperature Precipitation Wind Pressure Humidity
    00:00 +20°C° 0 mm 1 mps 706 mmHg 34%
    01:00 +20°C° 0 mm 1 mps 705 mmHg 33%
    02:00 +19°C° 0 mm 1 mps 705 mmHg 35%
    03:00 +17°C° 0 mm 0 mps 705 mmHg 37%
    04:00 +19°C° 0 mm 1 mps 705 mmHg 40%
    05:00 +19°C° 0 mm 1 mps 705 mmHg 43%
    06:00 +20°C° 0 mm 1 mps 706 mmHg 46%
    07:00 +22°C° 0 mm 1 mps 706 mmHg 40%
    08:00 +24°C° 0 mm 1 mps 706 mmHg 35%
    09:00 +27°C° 0 mm 1 mps 706 mmHg 30%
    10:00 +29°C° 0 mm 2 mps 706 mmHg 25%
    11:00 +31°C° 0 mm 2 mps 706 mmHg 20%
    12:00 +33°C° 0 mm 3 mps 706 mmHg 15%
    13:00 +34°C° 0 mm 3 mps 706 mmHg 14%
    14:00 +35°C° 0 mm 4 mps 705 mmHg 13%
    15:00 +36°C° 0 mm 5 mps 705 mmHg 11%
    16:00 +35°C° 0 mm 5 mps 704 mmHg 12%
    17:00 +35°C° 0 mm 5 mps 704 mmHg 13%
    18:00 +34°C° 0 mm 5 mps 704 mmHg 14%
    19:00 +32°C° 0 mm 4 mps 704 mmHg 17%
    20:00 +28°C° 0 mm 3 mps 705 mmHg 20%
    21:00 +25°C° 0 mm 3 mps 705 mmHg 23%
    22:00 +24°C° 0 mm 2 mps 705 mmHg 25%
    23:00 +23°C° 0 mm 2 mps 705 mmHg 27%

    23 June, Sunday

    Time Temperature Precipitation Wind Pressure Humidity
    00:00 +21°C° 0 mm 2 mps 705 mmHg 29%
    01:00 +20°C° 0 mm 2 mps 705 mmHg 31%
    02:00 +20°C° 0 mm 1 mps 705 mmHg 32%
    03:00 +19°C° 0 mm 1 mps 705 mmHg 34%
    04:00 +19°C° 0 mm 1 mps 705 mmHg 35%
    05:00 +20°C° 0 mm 1 mps 705 mmHg 35%
    06:00 +20°C° 0 mm 1 mps 705 mmHg 36%
    07:00 +23°C° 0 mm 1 mps 705 mmHg 31%
    08:00 +25°C° 0 mm 1 mps 706 mmHg 27%
    09:00 +28°C° 0 mm 1 mps 706 mmHg 22%
    10:00 +29°C° 0 mm 1 mps 706 mmHg 21%
    11:00 +31°C° 0 mm 2 mps 706 mmHg 21%
    12:00 +34°C° 0 mm 2 mps 705 mmHg 21%
    13:00 +35°C° 0 mm 3 mps 705 mmHg 19%
    14:00 +36°C° 0 mm 4 mps 704 mmHg 18%
    15:00 +37°C° 0 mm 5 mps 704 mmHg 17%
    16:00 +36°C° 0 mm 5 mps 704 mmHg 18%
    17:00 +36°C° 0 mm 5 mps 703 mmHg 20%
    18:00 +35°C° 0 mm 5 mps 703 mmHg 21%
    19:00 +33°C° 0 mm 4 mps 703 mmHg 25%
    20:00 +29°C° 0 mm 4 mps 704 mmHg 29%
    21:00 +27°C° 0 mm 3 mps 704 mmHg 33%
    22:00 +25°C° 0 mm 3 mps 704 mmHg 36%
    23:00 +24°C° 0 mm 2 mps 704 mmHg 39%

    24 June, Monday

    Time Temperature Precipitation Wind Pressure Humidity
    00:00 +23°C° 0 mm 2 mps 704 mmHg 43%
    01:00 +20°C° 0 mm 2 mps 704 mmHg 47%
    02:00 +19°C° 0 mm 2 mps 704 mmHg 50%
    03:00 +18°C° 0 mm 2 mps 704 mmHg 54%
    04:00 +18°C° 0 mm 2 mps 705 mmHg 57%
    05:00 +20°C° 0 mm 1 mps 705 mmHg 60%
    06:00 +20°C° 0 mm 1 mps 705 mmHg 63%
    07:00 +22°C° 0 mm 1 mps 705 mmHg 55%
    08:00 +25°C° 0 mm 1 mps 706 mmHg 47%
    09:00 +28°C° 0 mm 1 mps 706 mmHg 39%
    10:00 +29°C° 0 mm 1 mps 706 mmHg 35%
    11:00 +31°C° 0 mm 2 mps 706 mmHg 31%
    12:00 +34°C° 0 mm 2 mps 706 mmHg 26%
    13:00 +35°C° 0 mm 3 mps 705 mmHg 24%
    14:00 +36°C° 0 mm 4 mps 705 mmHg 22%
    15:00 +39°C° 0 mm 5 mps 705 mmHg 20%
    16:00 +37°C° 0 mm 5 mps 705 mmHg 22%
    17:00 +35°C° 0 mm 5 mps 705 mmHg 23%
    18:00 +34°C° 0 mm 6 mps 705 mmHg 24%
    19:00 +32°C° 0 mm 4 mps 705 mmHg 30%
    20:00 +28°C° 0 mm 3 mps 706 mmHg 36%
    21:00 +25°C° 0 mm 1 mps 706 mmHg 41%
    22:00 +24°C° 0 mm 1 mps 706 mmHg 43%
    23:00 +23°C° 0 mm 1 mps 706 mmHg 46%
    Show more